TimeCST,TemperatureF,Dew PointF,Humidity,Sea Level PressureIn,VisibilityMPH,Wind Direction,Wind SpeedMPH,Gust SpeedMPH,PrecipitationIn,Events,Conditions,WindDirDegrees,DateUTC
12:54 AM,42.1,23.0,47,29.84,10.0,WSW,3.5,-,N/A,,Clear,250,2013-02-14 06:54:00
1:54 AM,39.9,24.1,53,29.85,10.0,SW,6.9,-,N/A,,Clear,220,2013-02-14 07:54:00
2:54 AM,39.0,24.1,55,29.86,10.0,SW,5.8,-,N/A,,Clear,230,2013-02-14 08:54:00
3:54 AM,37.9,25.0,60,29.87,10.0,Variable,4.6,-,N/A,,Clear,0,2013-02-14 09:54:00
4:54 AM,36.0,26.1,67,29.88,10.0,SSW,4.6,-,N/A,,Overcast,200,2013-02-14 10:54:00
5:54 AM,35.6,24.8,65,29.90,10.0,SW,4.6,-,N/A,,Partly Cloudy,220,2013-02-14 11:54:00
6:54 AM,34.0,25.0,70,29.94,10.0,SSW,6.9,-,N/A,,Clear,200,2013-02-14 12:54:00
7:54 AM,36.0,27.0,70,29.98,10.0,SSW,5.8,-,N/A,,Clear,210,2013-02-14 13:54:00
8:54 AM,44.1,30.0,58,30.00,10.0,WNW,9.2,-,N/A,,Clear,300,2013-02-14 14:54:00
9:54 AM,46.9,30.0,52,30.00,10.0,NNW,6.9,-,N/A,,Clear,330,2013-02-14 15:54:00
10:54 AM,48.9,28.0,44,30.02,10.0,NW,9.2,18.4,N/A,,Clear,320,2013-02-14 16:54:00
11:54 AM,50.0,28.0,43,30.03,10.0,NW,10.4,20.7,N/A,,Clear,320,2013-02-14 17:54:00
12:54 PM,50.0,28.0,43,30.02,10.0,WNW,9.2,-,N/A,,Clear,290,2013-02-14 18:54:00
1:54 PM,50.0,27.0,41,30.02,10.0,WNW,8.1,-,N/A,,Clear,300,2013-02-14 19:54:00
2:54 PM,51.1,27.0,39,30.02,10.0,WNW,12.7,-,N/A,,Clear,290,2013-02-14 20:54:00
3:54 PM,51.1,25.0,36,30.03,10.0,West,12.7,20.7,N/A,,Clear,280,2013-02-14 21:54:00
4:54 PM,51.1,24.1,35,30.04,10.0,WNW,12.7,21.9,N/A,,Scattered Clouds,300,2013-02-14 22:54:00
5:54 PM,48.0,21.9,36,30.08,10.0,NW,11.5,23.0,N/A,,Clear,320,2013-02-14 23:54:00
6:54 PM,46.0,21.9,39,30.10,10.0,WNW,5.8,-,N/A,,Overcast,300,2013-02-15 00:54:00
7:54 PM,44.1,23.0,43,30.12,10.0,WNW,4.6,-,N/A,,Mostly Cloudy,290,2013-02-15 01:54:00
8:54 PM,43.0,23.0,45,30.12,10.0,WNW,8.1,-,N/A,,Clear,290,2013-02-15 02:54:00
9:54 PM,41.0,21.9,47,30.14,10.0,WNW,10.4,-,N/A,,Clear,290,2013-02-15 03:54:00
10:54 PM,39.9,21.0,47,30.15,10.0,WNW,11.5,-,N/A,,Clear,300,2013-02-15 04:54:00
11:54 PM,37.9,24.1,57,30.18,10.0,NW,11.5,-,N/A,,Scattered Clouds,310,2013-02-15 05:54:00